| time (UTC) | temp F | wind direction | speed MPH | gust MPH | rain 1hr in | rain 24hr in | rain mn in | humidity % | barometer mb |
| 20260504081740 | 54 | 256 | 0.0 | 0.0 | 0.00 | 0.50 | 0.48 | 95 | 1015.4 |
| 20260504081226 | 54 | 256 | 0.0 | 0.0 | 0.00 | 0.50 | 0.48 | 95 | 1015.3 |
| 20260504080706 | 54 | 256 | 0.0 | 0.0 | 0.00 | 0.50 | 0.48 | 95 | 1015.2 |
| 20260504080210 | 54 | 256 | 0.0 | 0.0 | 0.00 | 0.50 | 0.48 | 95 | 1015.2 |
| 20260504050337 | 57 | 246 | 1.0 | 8.0 | 0.00 | 0.40 | 0.38 | 92 | 1013.6 |
| 20260504045837 | 57 | 237 | 0.0 | 0.0 | 0.00 | 0.40 | 0.38 | 93 | 1013.6 |
| 20260504045338 | 57 | 241 | 0.0 | 3.0 | 0.00 | 0.40 | 0.38 | 92 | 1013.5 |
| 20260504044834 | 57 | 209 | 0.0 | 0.0 | 0.00 | 0.40 | 0.38 | 93 | 1013.5 |
| 20260504044337 | 57 | 196 | 0.0 | 2.0 | 0.00 | 0.40 | 0.38 | 93 | 1013.6 |
| 20260504043831 | 57 | 251 | 0.0 | 2.0 | 0.00 | 0.40 | 0.38 | 92 | 1013.5 |
| 20260504043010 | 57 | 259 | 2.0 | 10.0 | 0.00 | 0.40 | 0.38 | 92 | 1013.4 |
| 20260504042510 | 57 | 269 | 2.0 | 10.0 | 0.00 | 0.40 | 0.38 | 92 | 1013.3 |
| 20260504042020 | 57 | 257 | 2.0 | 8.0 | 0.00 | 0.40 | 0.38 | 93 | 1013.2 |
| 20260504041524 | 58 | 257 | 2.0 | 10.0 | 0.00 | 0.40 | 0.38 | 93 | 1013.3 |
| 20260504041024 | 58 | 261 | 1.0 | 10.0 | 0.00 | 0.40 | 0.38 | 94 | 1013.3 |
| 20260504040517 | 58 | 273 | 1.0 | 14.0 | 0.00 | 0.39 | 0.37 | 93 | 1013.1 |
| 20260504040005 | 58 | 302 | 2.0 | 14.0 | 0.00 | 0.39 | 0.37 | 93 | 1013.2 |
| 20260504035508 | 58 | 269 | 2.0 | 14.0 | 0.00 | 0.39 | 0.37 | 93 | 1013.3 |
| 20260504034708 | 58 | 289 | 1.0 | 14.0 | 0.00 | 0.39 | 0.37 | 93 | 1013.2 |
| 20260504034215 | 58 | 225 | 1.0 | 8.0 | 0.00 | 0.39 | 0.37 | 93 | 1013.2 |
| 20260504033413 | 59 | 297 | 0.0 | 10.0 | 0.00 | 0.39 | 0.37 | 94 | 1013.0 |
| 20260504032910 | 59 | 267 | 0.0 | 10.0 | 0.00 | 0.39 | 0.37 | 94 | 1013.0 |
| 20260504032420 | 59 | 267 | 1.0 | 10.0 | 0.00 | 0.39 | 0.37 | 93 | 1013.2 |
| 20260504031916 | 59 | 263 | 0.0 | 9.0 | 0.00 | 0.39 | 0.37 | 93 | 1013.2 |
| 20260504031417 | 59 | 292 | 1.0 | 9.0 | 0.00 | 0.39 | 0.37 | 93 | 1013.2 |
| 20260504030925 | 59 | 276 | 1.0 | 9.0 | 0.00 | 0.39 | 0.37 | 93 | 1013.2 |
| 20260504030427 | 59 | 269 | 1.0 | 9.0 | 0.00 | 0.39 | 0.37 | 93 | 1013.1 |
| 20260504025634 | 59 | 263 | 1.0 | 9.0 | 0.00 | 0.39 | 0.37 | 93 | 1013.4 |
| 20260504025116 | 59 | 265 | 0.0 | 9.0 | 0.00 | 0.39 | 0.37 | 93 | 1013.4 |
| 20260504024615 | 59 | 269 | 0.0 | 9.0 | 0.00 | 0.39 | 0.37 | 92 | 1013.4 |
| 20260504024123 | 60 | 288 | 1.0 | 8.0 | 0.00 | 0.39 | 0.37 | 92 | 1013.5 |
| 20260504023611 | 60 | 279 | 1.0 | 8.0 | 0.00 | 0.39 | 0.37 | 92 | 1013.6 |
| 20260504022759 | 61 | 281 | 1.0 | 8.0 | 0.00 | 0.39 | 0.37 | 91 | 1013.5 |
| 20260504022307 | 61 | 279 | 1.0 | 8.0 | 0.00 | 0.39 | 0.37 | 91 | 1013.5 |
| 20260504021802 | 62 | 279 | 1.0 | 15.0 | 0.00 | 0.39 | 0.37 | 90 | 1013.7 |
| 20260504021242 | 62 | 325 | 2.0 | 15.0 | 0.00 | 0.39 | 0.37 | 90 | 1013.8 |
| 20260504020743 | 62 | 319 | 3.0 | 15.0 | 0.00 | 0.39 | 0.37 | 90 | 1013.8 |
| 20260504020249 | 62 | 331 | 3.0 | 15.0 | 0.00 | 0.39 | 0.37 | 89 | 1013.8 |
| 20260504015748 | 62 | 351 | 4.0 | 12.0 | 0.00 | 0.39 | 0.37 | 89 | 1014.0 |
| 20260504015230 | 62 | 322 | 4.0 | 12.0 | 0.00 | 0.39 | 0.37 | 89 | 1014.0 |
| 20260504014712 | 62 | 316 | 3.0 | 11.0 | 0.00 | 0.39 | 0.37 | 90 | 1014.0 |
| 20260504014213 | 62 | 11 | 2.0 | 11.0 | 0.00 | 0.39 | 0.37 | 91 | 1014.1 |
| 20260504013656 | 62 | 285 | 1.0 | 8.0 | 0.00 | 0.39 | 0.37 | 92 | 1014.1 |
| 20260504012254 | 61 | 342 | 3.0 | 10.0 | 0.00 | 0.39 | 0.37 | 92 | 1014.3 |
| 20260504011741 | 61 | 0 | 2.0 | 10.0 | 0.00 | 0.39 | 0.37 | 92 | 1014.3 |
| 20260504011250 | 61 | 317 | 2.0 | 10.0 | 0.00 | 0.39 | 0.37 | 92 | 1014.4 |
| 20260504010730 | 61 | 331 | 3.0 | 10.0 | 0.00 | 0.39 | 0.37 | 93 | 1014.4 |
| 20260504010227 | 61 | 312 | 3.0 | 10.0 | 0.00 | 0.39 | 0.37 | 93 | 1014.4 |
| 20260504005733 | 61 | 335 | 3.0 | 9.0 | 0.00 | 0.39 | 0.37 | 93 | 1014.5 |
| 20260504004914 | 61 | 317 | 3.0 | 9.0 | 0.00 | 0.39 | 0.37 | 94 | 1014.4 |
| 20260504004420 | 61 | 346 | 3.0 | 9.0 | 0.00 | 0.39 | 0.37 | 94 | 1014.6 |
| 20260504003901 | 60 | 329 | 3.0 | 13.0 | 0.00 | 0.39 | 0.37 | 94 | 1014.6 |
| 20260504003040 | 60 | 355 | 4.0 | 13.0 | 0.00 | 0.39 | 0.37 | 94 | 1014.6 |
| 20260504002549 | 60 | 311 | 4.0 | 13.0 | 0.00 | 0.39 | 0.37 | 94 | 1014.6 |
| 20260504002039 | 60 | 327 | 3.0 | 11.0 | 0.00 | 0.39 | 0.37 | 94 | 1014.5 |
| 20260504001537 | 60 | 325 | 3.0 | 10.0 | 0.00 | 0.39 | 0.37 | 94 | 1014.5 |
| 20260504001036 | 60 | 21 | 2.0 | 10.0 | 0.00 | 0.39 | 0.37 | 94 | 1014.6 |
| 20260504000518 | 60 | 327 | 2.0 | 11.0 | 0.00 | 0.39 | 0.37 | 94 | 1014.6 |
| 20260504000005 | 60 | 337 | 3.0 | 11.0 | 0.00 | 0.39 | 0.37 | 94 | 1014.6 |
| 20260503235510 | 60 | 346 | 3.0 | 11.0 | 0.00 | 0.39 | 0.37 | 95 | 1014.7 |
| 20260503235017 | 60 | 355 | 2.0 | 11.0 | 0.00 | 0.39 | 0.37 | 95 | 1014.6 |
| 20260503234527 | 60 | 327 | 3.0 | 10.0 | 0.00 | 0.39 | 0.37 | 95 | 1014.7 |
| 20260503234016 | 60 | 345 | 3.0 | 10.0 | 0.00 | 0.39 | 0.37 | 94 | 1014.7 |
| 20260503232858 | 59 | 340 | 2.0 | 8.0 | 0.00 | 0.38 | 0.37 | 95 | 1014.8 |
| 20260503232402 | 59 | 320 | 2.0 | 9.0 | 0.00 | 0.38 | 0.37 | 95 | 1014.9 |
| 20260503231903 | 59 | 333 | 2.0 | 9.0 | 0.00 | 0.38 | 0.37 | 95 | 1015.0 |
| 20260503231403 | 59 | 315 | 2.0 | 11.0 | 0.00 | 0.38 | 0.37 | 95 | 1015.0 |
| 20260503230844 | 60 | 321 | 2.0 | 11.0 | 0.00 | 0.38 | 0.37 | 95 | 1015.0 |
| 20260503230326 | 60 | 11 | 4.0 | 11.0 | 0.00 | 0.38 | 0.37 | 95 | 1015.0 |
| 20260503225811 | 59 | 344 | 4.0 | 11.0 | 0.00 | 0.38 | 0.37 | 95 | 1014.9 |
| 20260503224958 | 59 | 326 | 3.0 | 12.0 | 0.03 | 0.38 | 0.37 | 96 | 1015.0 |
| 20260503224451 | 59 | 355 | 4.0 | 12.0 | 0.03 | 0.38 | 0.37 | 96 | 1014.9 |
| 20260503223957 | 59 | 329 | 5.0 | 12.0 | 0.03 | 0.38 | 0.37 | 96 | 1014.6 |
| 20260503223456 | 59 | 16 | 5.0 | 12.0 | 0.03 | 0.37 | 0.37 | 96 | 1014.7 |
| 20260503222957 | 59 | 355 | 5.0 | 11.0 | 0.03 | 0.37 | 0.36 | 96 | 1014.7 |
| 20260503222448 | 59 | 345 | 4.0 | 11.0 | 0.07 | 0.37 | 0.36 | 96 | 1014.6 |
| 20260503221940 | 59 | 5 | 3.0 | 10.0 | 0.17 | 0.37 | 0.36 | 96 | 1014.7 |
| 20260503221433 | 59 | 324 | 3.0 | 10.0 | 0.14 | 0.36 | 0.34 | 96 | 1014.8 |
| 20260503220933 | 59 | 13 | 4.0 | 10.0 | 0.05 | 0.34 | 0.33 | 96 | 1014.9 |
| 20260503220439 | 59 | 0 | 3.0 | 13.0 | 0.07 | 0.34 | 0.33 | 96 | 1014.9 |
| 20260503215923 | 59 | 350 | 3.0 | 13.0 | 0.03 | 0.33 | 0.32 | 96 | 1014.9 |
| 20260503214819 | 59 | 5 | 2.0 | 13.0 | 0.03 | 0.33 | 0.31 | 96 | 1014.9 |
| 20260503214326 | 59 | 345 | 3.0 | 9.0 | 0.03 | 0.33 | 0.31 | 96 | 1014.8 |
| 20260503213815 | 59 | 355 | 3.0 | 10.0 | 0.03 | 0.32 | 0.30 | 96 | 1014.8 |
| 20260503213315 | 59 | 5 | 3.0 | 10.0 | 0.03 | 0.32 | 0.30 | 96 | 1014.6 |
| 20260503212822 | 59 | 355 | 2.0 | 10.0 | 0.03 | 0.31 | 0.29 | 96 | 1014.7 |
| 20260503212305 | 59 | 267 | 2.0 | 10.0 | 0.04 | 0.31 | 0.29 | 96 | 1014.8 |
| 20260503211749 | 59 | 325 | 1.0 | 7.0 | 0.10 | 0.31 | 0.29 | 96 | 1014.8 |
| 20260503211248 | 59 | 323 | 1.0 | 7.0 | 0.20 | 0.30 | 0.29 | 96 | 1014.7 |
| 20260503210750 | 59 | 348 | 1.0 | 7.0 | 0.07 | 0.28 | 0.26 | 96 | 1014.7 |
| 20260503210239 | 59 | 340 | 1.0 | 7.0 | 0.07 | 0.28 | 0.26 | 96 | 1014.8 |
| 20260503205726 | 59 | 328 | 1.0 | 7.0 | 0.00 | 0.27 | 0.25 | 96 | 1014.7 |
| 20260503205233 | 59 | 324 | 1.0 | 2.0 | 0.00 | 0.26 | 0.25 | 96 | 1014.7 |
| 20260503204713 | 59 | 337 | 2.0 | 8.0 | 0.00 | 0.26 | 0.25 | 96 | 1014.5 |
| 20260503204154 | 59 | 335 | 2.0 | 9.0 | 0.00 | 0.26 | 0.25 | 96 | 1014.4 |
| 20260503203635 | 59 | 328 | 2.0 | 9.0 | 0.00 | 0.26 | 0.25 | 96 | 1014.4 |
| 20260503203133 | 59 | 347 | 2.0 | 9.0 | 0.00 | 0.26 | 0.25 | 96 | 1014.5 |
| 20260503202626 | 59 | 9 | 1.0 | 9.0 | 0.00 | 0.26 | 0.25 | 96 | 1014.4 |
| 20260503202118 | 59 | 315 | 1.0 | 7.0 | 0.00 | 0.26 | 0.25 | 96 | 1014.4 |
| 20260503201324 | 59 | 325 | 1.0 | 7.0 | 0.00 | 0.26 | 0.25 | 96 | 1014.5 |
| 20260503200813 | 59 | 336 | 0.0 | 5.0 | 0.00 | 0.26 | 0.25 | 96 | 1014.4 |
| 20260503200014 | 59 | 323 | 1.0 | 8.0 | 0.00 | 0.26 | 0.25 | 96 | 1014.3 |
| 20260503195459 | 59 | 314 | 1.0 | 8.0 | 0.00 | 0.26 | 0.25 | 96 | 1014.3 |
| 20260503194949 | 59 | 351 | 1.0 | 8.0 | 0.00 | 0.26 | 0.25 | 96 | 1014.4 |
| 20260503194458 | 59 | 331 | 1.0 | 8.0 | 0.00 | 0.26 | 0.25 | 96 | 1014.4 |
| 20260503193949 | 59 | 321 | 1.0 | 5.0 | 0.00 | 0.26 | 0.25 | 96 | 1014.3 |
| 20260503193433 | 59 | 345 | 0.0 | 5.0 | 0.00 | 0.26 | 0.25 | 96 | 1014.3 |
| 20260503192926 | 59 | 338 | 0.0 | 3.0 | 0.00 | 0.26 | 0.25 | 96 | 1014.4 |
| 20260503192406 | 59 | 327 | 0.0 | 0.0 | 0.00 | 0.26 | 0.25 | 96 | 1014.3 |
| 20260503191900 | 59 | 327 | 0.0 | 1.0 | 0.00 | 0.26 | 0.25 | 96 | 1014.4 |
| 20260503191355 | 59 | 332 | 0.0 | 0.0 | 0.00 | 0.26 | 0.25 | 96 | 1014.5 |
| 20260503190847 | 59 | 331 | 0.0 | 0.0 | 0.00 | 0.26 | 0.25 | 96 | 1014.2 |
| 20260503190336 | 59 | 325 | 0.0 | 0.0 | 0.00 | 0.26 | 0.25 | 96 | 1014.3 |
| 20260503185844 | 59 | 325 | 0.0 | 2.0 | 0.00 | 0.26 | 0.25 | 96 | 1014.5 |
| 20260503185345 | 59 | 349 | 0.0 | 3.0 | 0.00 | 0.26 | 0.25 | 96 | 1014.5 |
| 20260503184841 | 59 | 307 | 0.0 | 3.0 | 0.00 | 0.26 | 0.25 | 96 | 1014.6 |
| 20260503184322 | 59 | 326 | 0.0 | 0.0 | 0.00 | 0.26 | 0.25 | 96 | 1014.6 |
| 20260503183811 | 59 | 327 | 0.0 | 1.0 | 0.00 | 0.26 | 0.25 | 96 | 1014.6 |
| 20260503183314 | 59 | 327 | 0.0 | 1.0 | 0.00 | 0.26 | 0.25 | 96 | 1014.6 |
| 20260503182808 | 59 | 327 | 0.0 | 0.0 | 0.00 | 0.26 | 0.25 | 96 | 1014.6 |
| 20260503182012 | 59 | 329 | 0.0 | 1.0 | 0.00 | 0.26 | 0.25 | 96 | 1014.6 |
| 20260503181508 | 59 | 327 | 0.0 | 0.0 | 0.00 | 0.26 | 0.25 | 96 | 1014.8 |
| 20260503181002 | 59 | 327 | 0.0 | 0.0 | 0.00 | 0.26 | 0.25 | 96 | 1014.8 |
| 20260503180504 | 59 | 327 | 0.0 | 0.0 | 0.00 | 0.25 | 0.24 | 96 | 1014.9 |
| 20260503175957 | 59 | 327 | 0.0 | 0.0 | 0.03 | 0.25 | 0.24 | 96 | 1014.8 |
| 20260503175506 | 59 | 327 | 0.0 | 0.0 | 0.03 | 0.25 | 0.24 | 96 | 1014.9 |
| 20260503175009 | 59 | 327 | 0.0 | 1.0 | 0.03 | 0.25 | 0.24 | 96 | 1015.0 |
| 20260503174510 | 59 | 327 | 0.0 | 1.0 | 0.03 | 0.25 | 0.24 | 96 | 1015.1 |
| 20260503174010 | 59 | 325 | 0.0 | 2.0 | 0.03 | 0.25 | 0.23 | 96 | 1015.1 |
| 20260503173206 | 59 | 323 | 0.0 | 0.0 | 0.13 | 0.25 | 0.23 | 96 | 1015.1 |
| 20260503172705 | 59 | 323 | 0.0 | 0.0 | 0.03 | 0.24 | 0.22 | 96 | 1015.2 |
| 20260503172200 | 59 | 323 | 0.0 | 0.0 | 0.03 | 0.23 | 0.22 | 96 | 1015.1 |
| 20260503171647 | 59 | 322 | 0.0 | 0.0 | 0.05 | 0.23 | 0.22 | 95 | 1015.1 |
| 20260503170851 | 59 | 323 | 0.0 | 0.0 | 0.14 | 0.22 | 0.22 | 95 | 1015.3 |
| 20260503170330 | 59 | 322 | 0.0 | 0.0 | 0.00 | 0.22 | 0.20 | 95 | 1015.5 |
| 20260503150636 | 59 | 319 | 0.0 | 0.0 | 0.11 | 0.16 | 0.14 | 94 | 1016.5 |
| 20260503150139 | 59 | 319 | 0.0 | 2.0 | 0.24 | 0.15 | 0.14 | 94 | 1016.6 |
| 20260503131131 | 62 | 263 | 0.0 | 7.0 | 0.00 | 0.00 | 0.00 | 88 | 1017.3 |
| 20260503130633 | 62 | 283 | 0.0 | 0.0 | 0.00 | 0.00 | 0.00 | 88 | 1017.1 |
| 20260503130136 | 62 | 262 | 0.0 | 7.0 | 0.00 | 0.00 | 0.00 | 88 | 1017.1 |
| 20260503120150 | 60 | 288 | 0.0 | 0.0 | 0.00 | 0.00 | 0.00 | 81 | 1017.3 |
| 20260503110445 | 61 | 288 | 0.0 | 0.0 | 0.00 | 0.00 | 0.00 | 79 | 1017.0 |